[TLELIST] Archives

 

[list_settings.list_name] Current TLEs

May 13th 2013 PST

HST 1 20580U 90037B 13133.15030543 .00002086 00000-0 13680-3 0 2389 2 20580 028.4691 142.5067 0003407 342.4194 096.8410 15.03572357 64414 ISS (ZARYA) 1 25544U 98067A 13133.51513756 .00010382 00000-0 18258-3 0 7993 2 25544 051.6480 280.2537 0005053 305.4068 132.0569 15.51078726829324 CXO 1 25867U 99040B 13133.53129310 -.00000571 00000-0 00000+0 0 9000 2 25867 075.2009 341.6584 8589098 277.6078 359.4288 00.37799041 10402 ____________________________________________________________________ These 2-Line ...Continue Reading

[list_settings.list_name] Current TLEs

May 12th 2013 PST

HST 1 20580U 90037B 13131.49960753 .00001558 00000-0 99133-4 0 2379 2 20580 028.4689 153.3265 0003284 324.2700 162.3865 15.03567927 64178 ISS (ZARYA) 1 25544U 98067A 13132.41397693 .00011291 00000-0 19801-3 0 7930 2 25544 051.6482 285.7163 0005195 301.4571 103.2417 15.51057210829151 CXO 1 25867U 99040B 13133.53129310 -.00000571 00000-0 00000+0 0 9000 2 25867 075.2009 341.6584 8589098 277.6078 359.4288 00.37799041 10402 ____________________________________________________________________ These 2-Line ...Continue Reading

[list_settings.list_name] Current TLEs

May 11th 2013 PST

HST 1 20580U 90037B 13130.44192984 .00001358 00000-0 84824-4 0 2364 2 20580 028.4689 160.2600 0003224 312.5955 197.7332 15.03565163 64018 ISS (ZARYA) 1 25544U 98067A 13131.45971493 .00010124 00000-0 17852-3 0 7870 2 25544 051.6480 290.4494 0004803 292.6567 180.1573 15.51035304829001 CXO 1 25867U 99040B 13133.53129310 -.00000571 00000-0 00000+0 0 9000 2 25867 075.2009 341.6584 8589098 277.6078 359.4288 00.37799041 10402 ____________________________________________________________________ These 2-Line ...Continue Reading

[list_settings.list_name] Current TLEs

May 10th 2013 PST

HST 1 20580U 90037B 13129.16350664 .00001495 00000-0 94640-4 0 2350 2 20580 028.4687 168.6386 0003034 297.6803 119.1228 15.03561569 63818 ISS (ZARYA) 1 25544U 98067A 13130.48251565 .00004105 00000-0 77164-4 0 7812 2 25544 051.6465 295.2983 0005066 290.4578 122.3688 15.51008657828858 CXO 1 25867U 99040B 13130.88883492 -.00000721 00000-0 00000+0 0 8997 2 25867 075.1832 341.8445 8590876 277.6230 359.6797 00.37800212 10397 ____________________________________________________________________ These 2-Line ...Continue Reading

[list_settings.list_name] Current TLEs

May 9th 2013 PST

HST 1 20580U 90037B 13127.58339616 .00001827 00000-0 11838-3 0 2343 2 20580 028.4690 179.0025 0002942 280.2726 206.8218 15.03555887 63580 ISS (ZARYA) 1 25544U 98067A 13128.61961881 -.00041052 00000-0 -69116-3 0 7713 2 25544 051.6461 304.5496 0005036 282.3034 161.9960 15.50941328828561 CXO 1 25867U 99040B 13130.88883492 -.00000721 00000-0 00000+0 0 8997 2 25867 075.1832 341.8445 8590876 277.6230 359.6797 00.37800212 10397 ____________________________________________________________________ These 2-Line ...Continue Reading

[list_settings.list_name] Current TLEs

May 8th 2013 PST

HST 1 20580U 90037B 13127.58339616 .00001827 00000-0 11838-3 0 2343 2 20580 028.4690 179.0025 0002942 280.2726 206.8218 15.03555887 63580 ISS (ZARYA) 1 25544U 98067A 13128.48503631 .00600366 00000-0 93921-2 0 7709 2 25544 051.6543 305.2266 0003764 275.9354 136.4502 15.51043972828540 CXO 1 25867U 99040B 13130.88883492 -.00000721 00000-0 00000+0 0 8997 2 25867 075.1832 341.8445 8590876 277.6230 359.6797 00.37800212 10397 ____________________________________________________________________ These 2-Line ...Continue Reading

[list_settings.list_name] Current TLEs

May 7th 2013 PST

HST 1 20580U 90037B 13126.45220125 .00002001 00000-0 13082-3 0 2339 2 20580 028.4691 186.4171 0002923 267.6905 204.4105 15.03551354 63418 ISS (ZARYA) 1 25544U 98067A 13127.51897566 .00011232 00000-0 19153-3 0 7620 2 25544 051.6487 310.0045 0007527 252.3268 159.9634 15.51846647828399 CXO 1 25867U 99040B 13128.24403812 -.00000811 00000-0 00000+0 0 8987 2 25867 075.1777 341.9816 8593052 277.6574 359.6046 00.37800914 10383 ____________________________________________________________________ These 2-Line ...Continue Reading

[list_settings.list_name] Current TLEs

May 6th 2013 PST

HST 1 20580U 90037B 13124.66371749 .00002407 00000-0 15992-3 0 2320 2 20580 028.4695 198.1393 0002905 245.8987 246.4646 15.03543511 63148 ISS (ZARYA) 1 25544U 98067A 13126.43116416 .00011397 00000-0 19439-3 0 7560 2 25544 051.6496 315.4091 0007508 247.6576 203.4440 15.51821711828224 CXO 1 25867U 99040B 13128.24403812 -.00000811 00000-0 00000+0 0 8987 2 25867 075.1777 341.9816 8593052 277.6574 359.6046 00.37800914 10383 ____________________________________________________________________ These 2-Line ...Continue Reading

[list_settings.list_name] Current TLEs

May 5th 2013 PST

HST 1 20580U 90037B 13124.66371749 .00002407 00000-0 15992-3 0 2320 2 20580 028.4695 198.1393 0002905 245.8987 246.4646 15.03543511 63148 ISS (ZARYA) 1 25544U 98067A 13125.52093100 .00012277 00000-0 20892-3 0 7498 2 25544 051.6491 319.9288 0007475 243.0988 159.6173 15.51803905828080 CXO 1 25867U 99040B 13125.59930284 -.00000679 00000-0 00000+0 0 8960 2 25867 075.1681 342.1157 8597943 277.6860 359.5911 00.37803765 10375 ____________________________________________________________________ These 2-Line ...Continue Reading

[list_settings.list_name] Current TLEs

May 4th 2013 PST

HST 1 20580U 90037B 13121.47261588 .00002733 00000-0 18330-3 0 2304 2 20580 028.4691 219.0490 0002945 209.0749 256.6760 15.03526634 62660 ISS (ZARYA) 1 25544U 98067A 13122.90694444 .00013045 00000-0 22198-3 0 7344 2 25544 051.6485 332.9137 0007705 230.2991 320.0573 15.51738862827670 CXO 1 25867U 99040B 13125.59930284 -.00000679 00000-0 00000+0 0 8960 2 25867 075.1681 342.1157 8597943 277.6860 359.5911 00.37803765 10375 ____________________________________________________________________ These 2-Line ...Continue Reading
  • This mailing list is a public mailing list - anyone may join or leave, at any time.
  • This mailing list is announce-only.

International Space Station (ISS) / Hubble Space Telescope (HST) / Chandra X-Ray Observatory Orbital Data via EMAIL

Privacy Policy:

Private list